Regional Weather Roundup
Issued by NWS Kansas City/Pleasant Hill, MO

Home | Current Version | Previous Version | Graphics & Text | Print | Product List | Glossary Off
Versions: 1 2 3 4 5 6 7 8 9 10 11 12 13 14 15 16 17 18 19 20 21 22 23 24 25 26 27 28 29 30 31 32 33 34 35 36 37 38 39 40 41 42 43 44 45 46 47 48 49 50

280
ASUS43 KEAX 161810
RWREAX

WEATHER ROUNDUP FOR EASTERN KANSAS AND NORTHWEST MISSOURI
NATIONAL WEATHER SERVICE KANSAS CITY/PLEASANT HILL MO
100 PM CDT MON OCT 16 2017

KSZ040-057-103>105-MOZ028-029-037-043-161900-
...KANSAS CITY METROPOLITAN AREA...

CITY           SKY/WX    TMP DP  RH WIND       PRES   REMARKS
K.C. INTL      SUNNY     66  39  37 SW12      30.36F
6HR MIN TEMP:  37; 6HR MAX TEMP:  66;

K.C. DOWNTOWN  SUNNY     67  41  38 SW7       30.36F
6HR MIN TEMP:  42; 6HR MAX TEMP:  67;

LEES SUMMIT    SUNNY     66  39  37 SW9       30.38F
6HR MIN TEMP:  43; 6HR MAX TEMP:  66;

OLATHE - IXD   SUNNY     65  42  43 SW10      30.38F
6HR MIN TEMP:  41; 6HR MAX TEMP:  65;

OLATHE - OJC   SUNNY     64  41  42 S8        30.38F
6HR MIN TEMP:  41; 6HR MAX TEMP:  64; 6HR PCP: TRACE;

LAWRENCE       SUNNY     67  42  40 S9        30.37F

$$

MOZ001>008-011>017-020>025-030>033-038>040-044>046-053-054-161900-
...NORTHERN AND CENTRAL MISSOURI...

CITY           SKY/WX    TMP DP  RH WIND       PRES   REMARKS
ST. JOSEPH     SUNNY     69  39  33 S10       30.34F
6HR MIN TEMP:  33; 6HR MAX TEMP:  69;

MOSBY          CLEAR     66  32  28 S8        30.35F
WARRENSBURG    SUNNY     64  39  39 S7        30.39F
WHITEMAN AFB   SUNNY     65  41  42 W6        30.34F
6HR MIN TEMP:  38; 6HR MAX TEMP:  65;

CLINTON        SUNNY     64  41  42 W5        30.40F
SEDALIA        SUNNY     66  42  41 SW9       30.39F
6HR MIN TEMP:  42; 6HR MAX TEMP:  66;

WARSAW         NOT AVBL
CHILLICOTHE      N/A     67  37  33 VRB6      30.36F
6HR MIN TEMP:  36; 6HR MAX TEMP:  67;

KIRKSVILLE     SUNNY     65  40  39 W8        30.36F
6HR MIN TEMP:  39; 6HR MAX TEMP:  65;


$$

MOZ041-047>049-056>058-063>065-088>090-097-161900-
...EASTERN AND SOUTHERN MISSOURI...

CITY           SKY/WX    TMP DP  RH WIND       PRES   REMARKS
ST. LOUIS INTL MOSUNNY   63  37  38 CALM      30.38F
6HR MIN TEMP:  43; 6HR MAX TEMP:  64;

SPIRIT OF STL  SUNNY     63  40  42 S3        30.37F
COLUMBIA       SUNNY     64  40  41 W9        30.38F
JEFFERSON CITY SUNNY     64  37  36 SW7       30.38F
ROLLA          SUNNY     61  32  33 VRB3      30.40F
OSAGE BEACH    SUNNY     63  38  39 VRB5      30.40F
SPRINGFIELD    SUNNY     65  34  31 N8        30.40F
BRANSON        SUNNY     63  34  34 E6        30.42F
JOPLIN         SUNNY     63  37  38 CALM      30.42F
WEST PLAINS    SUNNY     64  33  31 E8        30.41F

$$

IAZ060-094-KSZ022-034>040-054-083-096-NEZ052-066-093-161900-
...KANSAS...SOUTHEAST NEBRASKA AND IOWA...

CITY           SKY/WX    TMP DP  RH WIND       PRES   REMARKS
TOPEKA         SUNNY     68  44  42 VRB7      30.35F
6HR MIN TEMP:  37; 6HR MAX TEMP:  68;

MANHATTAN      SUNNY     69  43  38 VRB6      30.33F
EMPORIA        SUNNY     67  38  34 S10       30.37F
CHANUTE        SUNNY     64  40  41 S7        30.41F
WICHITA        SUNNY     66  42  41 S14       30.38F
OMAHA          SUNNY     68  37  32 S18       30.26F
LINCOLN        SUNNY     70  39  32 S13       30.26F
FALLS CITY     SUNNY     69  39  33 SW12G18   30.30F
LAMONI         SUNNY     64  36  35 S12       30.33F HAZE
DES MOINES     SUNNY     66  37  34 W9G20     30.29F

$$





USA.gov is the U.S. government's official web portal to all federal, state and local government web resources and services.